User: anonymous   Login
Location: Unspecified
(0.0000°N, 0.0000°E)
Time: 22:47:38
(UTC+00:00)
Language:

NUDTSAT - Orbit

View from above orbital plane
View from above orbital plane
View from above satellite
View from above satellite

Ground track
Ground track

The orbit data is extracted from the following two-line orbital elements,

1 42787U 17036Y   21023.58755080  .00001965  00000-0  80261-4 0  9993
2 42787  97.2777  79.1664 0010614 334.6677  25.4037 15.25514277199245
Epoch (UTC): 23 January 2021 14:06:04
Eccentricity: 0.0010614
inclination: 97.2777°
perigee height: 482 km
apogee height: 496 km
right ascension of ascending node: 79.1664°
argument of perigee: 334.6677°
revolutions per day: 15.25514277
mean anomaly at epoch: 25.4037°
orbit number at epoch: 19924

The dashed part of the orbit path shows where the satellite is in the earth's shadow,  

DLR